Torna al catalogo

PEGASUS R/B(2)

LostHEO
NORAD 33404·ROCKET BODY·🇺🇸 United States

Lanciato Oct 19, 2008 da Vandenberg Space Force Base

Loading…

Prossimi Passaggi (prossime 24 ore)

TLE

ObsoletoSource: Space-Track

Epoca: Oct 21, 2008, 00:00 UTC

1 33404U 08051D   08295.00000000 -.00082945  49491-3  10000-3 0  9995
2 33404 010.9379 036.1194 9458668 092.6147 109.6626 00.24205582    13

Traccia PEGASUS R/B(2) in tempo reale con AllMySat

Download on the App Store